Location: *
(45.5667°S, 177.5167°W)
Time: 15:16:32
(UTC+00:00)

Cosmos 2369 - Pass Details

Date: 29 May 2022
Orbit: 838 x 856 km, 71.0° (Epoch: 28 June)

Event Time Altitude Azimuth Distance (km) Brightness Sun altitude
Rises 05:48:22 0° 209° (SSW) 3,446 7.1 -15.4°
Reaches altitude 10° 05:50:52 10° 212° (SSW) 2,501 6.4 -15.8°
Maximum altitude 05:56:31 62° 291° (WNW) 954 4.2 -16.8°
Drops below altitude 10° 06:02:06 10° 10° (N) 2,461 6.2 -17.7°
Sets 06:04:32 0° 13° (NNE) 3,387 6.8 -18.2°
